sat.trackr.live / text

‹ back to catalog

STARLINK-5645

NORAD 55429 · 2023-014AQ

PAYLOAD ACTIVE UNKNOWN

§ Identity

Operator
Country
US
Launch date
2023-01-31
Launch site
AFWTR
Launch vehicle
Mass (kg)
RCS (m²)

Purposes: comms

External: N2YO · Heavens-Above · Gunter

§ Orbital elements

Epoch: 2026-05-25T00:35:11.662656Z

Period
96.11 min
Inclination
69.9992°
Eccentricity
0.0003044
Mean motion
14.98335415 rev/d
Perigee alt
569.9 km
Apogee alt
574.2 km
Semi-major
6,950.2 km
B*
-8.3166e-5
RAAN
252.0967°
Arg perigee
268.3252°
Mean anomaly
91.7558°
Rev number
18,299

§ Raw data

STARLINK-56451 55429U 23014AQ  26145.02444054 -.00001085  00000+0 -83166-4 0  99992 55429  69.9992 252.0967 0003044 268.3252  91.7558 14.98335415182998

JSON: /api/v1/satellites/55429 · /tle

For live sub-satellite position, see the globe view (requires WebGL).

§ Visibility from observer

Set your observer location to see the next 7 days of passes ≥ 10°. The values pass through the URL so the page stays shareable.

No JS? Fill the form by hand. The geolocation button needs JavaScript.